Year,Month,Day,Hour,Minute,Value (Times are PST for temperature in C)
2008,09,22,00,00,10.30
2008,09,22,00,01,10.30
2008,09,22,00,02,10.30
2008,09,22,00,03,10.30
2008,09,22,00,04,10.30
2008,09,22,00,05,10.30
2008,09,22,00,06,10.30
2008,09,22,00,07,10.40
2008,09,22,00,08,10.40
2008,09,22,00,09,10.40
2008,09,22,00,10,10.40
2008,09,22,00,11,10.40
2008,09,22,00,12,10.40
2008,09,22,00,13,10.40
2008,09,22,00,14,10.40
2008,09,22,00,15,10.40
2008,09,22,00,16,10.40
2008,09,22,00,17,10.40
2008,09,22,00,18,10.40
2008,09,22,00,19,10.40
2008,09,22,00,20,10.40
2008,09,22,00,21,10.40
2008,09,22,00,22,10.40
2008,09,22,00,23,10.40
2008,09,22,00,24,10.40
2008,09,22,00,25,10.40
2008,09,22,00,26,10.40
2008,09,22,00,27,10.40
2008,09,22,00,28,10.40
2008,09,22,00,29,10.40
2008,09,22,00,30,10.40
2008,09,22,00,31,10.40
2008,09,22,00,32,10.40
2008,09,22,00,33,10.40
2008,09,22,00,34,10.40
2008,09,22,00,35,10.40
2008,09,22,00,36,10.40
2008,09,22,00,37,10.40
2008,09,22,00,38,10.40
2008,09,22,00,39,10.40
2008,09,22,00,40,10.40
2008,09,22,00,41,10.40
2008,09,22,00,42,10.40
2008,09,22,00,43,10.40
2008,09,22,00,44,10.40
2008,09,22,00,45,10.40
2008,09,22,00,46,10.40
2008,09,22,00,47,10.40
2008,09,22,00,48,10.40
2008,09,22,00,49,10.40
2008,09,22,00,50,10.50
2008,09,22,00,51,10.40
2008,09,22,00,52,10.40
2008,09,22,00,53,10.40
2008,09,22,00,54,10.40
2008,09,22,00,55,10.40
2008,09,22,00,56,10.40
2008,09,22,00,57,10.40
2008,09,22,00,58,10.50
2008,09,22,00,59,10.50
2008,09,22,01,00,10.50
2008,09,22,01,01,10.50
2008,09,22,01,02,10.50
2008,09,22,01,03,10.50
2008,09,22,01,04,10.50
2008,09,22,01,05,10.50
2008,09,22,01,06,10.50
2008,09,22,01,07,10.50
2008,09,22,01,08,10.50
2008,09,22,01,09,10.50
2008,09,22,01,10,10.50
2008,09,22,01,11,10.50
2008,09,22,01,12,10.50
2008,09,22,01,13,10.50
2008,09,22,01,14,10.60
2008,09,22,01,15,10.60
2008,09,22,01,16,10.60
2008,09,22,01,17,10.60
2008,09,22,01,18,10.60
2008,09,22,01,19,10.60
2008,09,22,01,20,10.60
2008,09,22,01,21,10.60
2008,09,22,01,22,10.60
2008,09,22,01,23,10.60
2008,09,22,01,24,10.60
2008,09,22,01,25,10.60
2008,09,22,01,26,10.60
2008,09,22,01,27,10.60
2008,09,22,01,28,10.60
2008,09,22,01,29,10.60
2008,09,22,01,30,10.60
2008,09,22,01,31,10.60
2008,09,22,01,32,10.60
2008,09,22,01,33,10.60
2008,09,22,01,34,10.60
2008,09,22,01,35,10.60
2008,09,22,01,36,10.60
2008,09,22,01,37,10.60
2008,09,22,01,38,10.60
2008,09,22,01,39,10.60
2008,09,22,01,40,10.60
2008,09,22,01,41,10.60
2008,09,22,01,42,10.60
2008,09,22,01,43,10.60
2008,09,22,01,44,10.60
2008,09,22,01,45,10.60
2008,09,22,01,46,10.60
2008,09,22,01,47,10.60
2008,09,22,01,48,10.60
2008,09,22,01,49,10.60
2008,09,22,01,50,10.60
2008,09,22,01,51,10.60
2008,09,22,01,52,10.60
2008,09,22,01,53,10.60
2008,09,22,01,54,10.60
2008,09,22,01,55,10.60
2008,09,22,01,56,10.60
2008,09,22,01,57,10.60
2008,09,22,01,58,10.60
2008,09,22,01,59,10.60
2008,09,22,02,00,10.60
2008,09,22,02,01,10.60
2008,09,22,02,02,10.60
2008,09,22,02,03,10.60
2008,09,22,02,04,10.60
2008,09,22,02,05,10.60
2008,09,22,02,06,10.60
2008,09,22,02,07,10.60
2008,09,22,02,08,10.60
2008,09,22,02,09,10.60
2008,09,22,02,10,10.60
2008,09,22,02,11,10.60
2008,09,22,02,12,10.60
2008,09,22,02,13,10.60
2008,09,22,02,14,10.60
2008,09,22,02,15,10.60
2008,09,22,02,16,10.60
2008,09,22,02,17,10.60
2008,09,22,02,18,10.60
2008,09,22,02,19,10.60
2008,09,22,02,20,10.50
2008,09,22,02,21,10.50
2008,09,22,02,22,10.50
2008,09,22,02,23,10.50
2008,09,22,02,24,10.60
2008,09,22,02,25,10.60
2008,09,22,02,26,10.60
2008,09,22,02,27,10.60
2008,09,22,02,28,10.60
2008,09,22,02,29,10.60
2008,09,22,02,30,10.60
2008,09,22,02,31,10.60
2008,09,22,02,32,10.60
2008,09,22,02,33,10.60
2008,09,22,02,34,10.60
2008,09,22,02,35,10.60
2008,09,22,02,36,10.60
2008,09,22,02,37,10.60
2008,09,22,02,38,10.60
2008,09,22,02,39,10.60
2008,09,22,02,40,10.60
2008,09,22,02,41,10.60
2008,09,22,02,42,10.60
2008,09,22,02,43,10.60
2008,09,22,02,44,10.60
2008,09,22,02,45,10.60
2008,09,22,02,46,10.60
2008,09,22,02,47,10.60
2008,09,22,02,48,10.60
2008,09,22,02,49,10.60
2008,09,22,02,50,10.60
2008,09,22,02,51,10.60
2008,09,22,02,52,10.60
2008,09,22,02,53,10.60
2008,09,22,02,54,10.60
2008,09,22,02,55,10.60
2008,09,22,02,56,10.60
2008,09,22,02,57,10.60
2008,09,22,02,58,10.60
2008,09,22,02,59,10.60
2008,09,22,03,00,10.60
2008,09,22,03,01,10.50
2008,09,22,03,02,10.50
2008,09,22,03,03,10.50
2008,09,22,03,04,10.50
2008,09,22,03,05,10.50
2008,09,22,03,06,10.50
2008,09,22,03,07,10.50
2008,09,22,03,08,10.50
2008,09,22,03,09,10.50
2008,09,22,03,10,10.40
2008,09,22,03,11,10.40
2008,09,22,03,12,10.40
2008,09,22,03,13,10.40
2008,09,22,03,14,10.40
2008,09,22,03,15,10.40
2008,09,22,03,16,10.40
2008,09,22,03,17,10.30
2008,09,22,03,18,10.30
2008,09,22,03,19,10.30
2008,09,22,03,20,10.30
2008,09,22,03,21,10.30
2008,09,22,03,22,10.30
2008,09,22,03,23,10.30
2008,09,22,03,24,10.30
2008,09,22,03,25,10.30
2008,09,22,03,26,10.40
2008,09,22,03,27,10.40
2008,09,22,03,28,10.40
2008,09,22,03,29,10.40
2008,09,22,03,30,10.40
2008,09,22,03,31,10.40
2008,09,22,03,32,10.40
2008,09,22,03,33,10.40
2008,09,22,03,34,10.40
2008,09,22,03,35,10.40
2008,09,22,03,36,10.40
2008,09,22,03,37,10.40
2008,09,22,03,38,10.30
2008,09,22,03,39,10.30
2008,09,22,03,40,10.30
2008,09,22,03,41,10.30
2008,09,22,03,42,10.30
2008,09,22,03,43,10.30
2008,09,22,03,44,10.20
2008,09,22,03,45,10.20
2008,09,22,03,46,10.20
2008,09,22,03,47,10.20
2008,09,22,03,48,10.10
2008,09,22,03,49,10.10
2008,09,22,03,50,10.10
2008,09,22,03,51,10.10
2008,09,22,03,52,10.10
2008,09,22,03,53,10.20
2008,09,22,03,54,10.20
2008,09,22,03,55,10.20
2008,09,22,03,56,10.20
2008,09,22,03,57,10.20
2008,09,22,03,58,10.20
2008,09,22,03,59,10.20
2008,09,22,04,00,10.20
2008,09,22,04,01,10.20
2008,09,22,04,02,10.20
2008,09,22,04,03,10.10
2008,09,22,04,04,10.10
2008,09,22,04,05,10.10
2008,09,22,04,06,10.00
2008,09,22,04,07,10.00
2008,09,22,04,08,10.00
2008,09,22,04,09,10.00
2008,09,22,04,10,10.00
2008,09,22,04,11,9.90
2008,09,22,04,12,9.90
2008,09,22,04,13,9.90
2008,09,22,04,14,9.90
2008,09,22,04,15,9.90
2008,09,22,04,16,9.90
2008,09,22,04,17,9.90
2008,09,22,04,18,9.90
2008,09,22,04,19,10.00
2008,09,22,04,20,10.00
2008,09,22,04,21,10.00
2008,09,22,04,22,10.10
2008,09,22,04,23,10.10
2008,09,22,04,24,10.10
2008,09,22,04,25,10.10
2008,09,22,04,26,10.10
2008,09,22,04,27,10.10
2008,09,22,04,28,10.10
2008,09,22,04,29,10.10
2008,09,22,04,30,10.10
2008,09,22,04,31,10.10
2008,09,22,04,32,10.20
2008,09,22,04,33,10.20
2008,09,22,04,34,10.20
2008,09,22,04,35,10.20
2008,09,22,04,36,10.20
2008,09,22,04,37,10.20
2008,09,22,04,38,10.30
2008,09,22,04,39,10.30
2008,09,22,04,40,10.30
2008,09,22,04,41,10.30
2008,09,22,04,42,10.30
2008,09,22,04,43,10.30
2008,09,22,04,44,10.30
2008,09,22,04,45,10.30
2008,09,22,04,46,10.30
2008,09,22,04,47,10.30
2008,09,22,04,48,10.30
2008,09,22,04,49,10.30
2008,09,22,04,50,10.30
2008,09,22,04,51,10.30
2008,09,22,04,52,10.30
2008,09,22,04,53,10.30
2008,09,22,04,54,10.30
2008,09,22,04,55,10.20
2008,09,22,04,56,10.20
2008,09,22,04,57,10.20
2008,09,22,04,58,10.20
2008,09,22,04,59,10.20
2008,09,22,05,00,10.20
2008,09,22,05,01,10.20
2008,09,22,05,02,10.20
2008,09,22,05,03,10.20
2008,09,22,05,04,10.10
2008,09,22,05,05,10.10
2008,09,22,05,06,10.10
2008,09,22,05,07,10.10
2008,09,22,05,08,10.00
2008,09,22,05,09,10.00
2008,09,22,05,10,9.90
2008,09,22,05,11,9.90
2008,09,22,05,12,9.90
2008,09,22,05,13,9.80
2008,09,22,05,14,9.80
2008,09,22,05,15,9.80
2008,09,22,05,16,9.70
2008,09,22,05,17,9.70
2008,09,22,05,18,9.70
2008,09,22,05,19,9.60
2008,09,22,05,20,9.60
2008,09,22,05,21,9.60
2008,09,22,05,22,9.60
2008,09,22,05,23,9.50
2008,09,22,05,24,9.50
2008,09,22,05,25,9.40
2008,09,22,05,26,9.40
2008,09,22,05,27,9.40
2008,09,22,05,28,9.40
2008,09,22,05,29,9.40
2008,09,22,05,30,9.40
2008,09,22,05,31,9.40
2008,09,22,05,32,9.40
2008,09,22,05,33,9.40
2008,09,22,05,34,9.30
2008,09,22,05,35,9.30
2008,09,22,05,36,9.20
2008,09,22,05,37,9.20
2008,09,22,05,38,9.20
2008,09,22,05,39,9.20
2008,09,22,05,40,9.20
2008,09,22,05,41,9.20
2008,09,22,05,42,9.20
2008,09,22,05,43,9.20
2008,09,22,05,44,9.20
2008,09,22,05,45,9.20
2008,09,22,05,46,9.20
2008,09,22,05,47,9.20
2008,09,22,05,48,9.20
2008,09,22,05,49,9.20
2008,09,22,05,50,9.20
2008,09,22,05,51,9.20
2008,09,22,05,52,9.20
2008,09,22,05,53,9.20
2008,09,22,05,54,9.20
2008,09,22,05,55,9.20
2008,09,22,05,56,9.20
2008,09,22,05,57,9.10
2008,09,22,05,58,9.10
2008,09,22,05,59,9.10
2008,09,22,06,00,9.10
2008,09,22,06,01,9.10
2008,09,22,06,02,9.10
2008,09,22,06,03,9.10
2008,09,22,06,04,9.10
2008,09,22,06,05,9.10
2008,09,22,06,06,9.10
2008,09,22,06,07,9.00
2008,09,22,06,08,9.00
2008,09,22,06,09,9.00
2008,09,22,06,10,9.00
2008,09,22,06,11,8.90
2008,09,22,06,12,8.90
2008,09,22,06,13,8.90
2008,09,22,06,14,8.90
2008,09,22,06,15,8.90
2008,09,22,06,16,8.90
2008,09,22,06,17,8.90
2008,09,22,06,18,8.90
2008,09,22,06,19,8.80
2008,09,22,06,20,8.80
2008,09,22,06,21,8.80
2008,09,22,06,22,8.80
2008,09,22,06,23,8.80
2008,09,22,06,24,8.80
2008,09,22,06,25,8.80
2008,09,22,06,26,8.80
2008,09,22,06,27,8.80
2008,09,22,06,28,8.80
2008,09,22,06,29,8.80
2008,09,22,06,30,8.80
2008,09,22,06,31,8.80
2008,09,22,06,32,8.80
2008,09,22,06,33,8.80
2008,09,22,06,34,8.80
2008,09,22,06,35,8.80
2008,09,22,06,36,8.80
2008,09,22,06,37,8.70
2008,09,22,06,38,8.80
2008,09,22,06,39,8.70
2008,09,22,06,40,8.70
2008,09,22,06,41,8.70
2008,09,22,06,42,8.70
2008,09,22,06,43,8.70
2008,09,22,06,44,8.70
2008,09,22,06,45,8.70
2008,09,22,06,46,8.70
2008,09,22,06,47,8.70
2008,09,22,06,48,8.70
2008,09,22,06,49,8.60
2008,09,22,06,50,8.60
2008,09,22,06,51,8.60
2008,09,22,06,52,8.60
2008,09,22,06,53,8.60
2008,09,22,06,54,8.60
2008,09,22,06,55,8.60
2008,09,22,06,56,8.60
2008,09,22,06,57,8.60
2008,09,22,06,58,8.60
2008,09,22,06,59,8.60
2008,09,22,07,00,8.60
2008,09,22,07,01,8.60
2008,09,22,07,02,8.60
2008,09,22,07,03,8.50
2008,09,22,07,04,8.50
2008,09,22,07,05,8.50
2008,09,22,07,06,8.50
2008,09,22,07,07,8.50
2008,09,22,07,08,8.50
2008,09,22,07,09,8.50
2008,09,22,07,10,8.50
2008,09,22,07,11,8.50
2008,09,22,07,12,8.50
2008,09,22,07,13,8.50
2008,09,22,07,14,8.50
2008,09,22,07,15,8.50
2008,09,22,07,16,8.50
2008,09,22,07,17,8.50
2008,09,22,07,18,8.50
2008,09,22,07,19,8.40
2008,09,22,07,20,8.40
2008,09,22,07,21,8.40
2008,09,22,07,22,8.40
2008,09,22,07,23,8.40
2008,09,22,07,24,8.40
2008,09,22,07,25,8.40
2008,09,22,07,26,8.40
2008,09,22,07,27,8.40
2008,09,22,07,28,8.40
2008,09,22,07,29,8.40
2008,09,22,07,30,8.40
2008,09,22,07,31,8.40
2008,09,22,07,32,8.40
2008,09,22,07,33,8.40
2008,09,22,07,34,8.40
2008,09,22,07,35,8.40
2008,09,22,07,36,8.40
2008,09,22,07,37,8.40
2008,09,22,07,38,8.40
2008,09,22,07,39,8.40
2008,09,22,07,40,8.40
2008,09,22,07,41,8.40
2008,09,22,07,42,8.40
2008,09,22,07,43,8.40
2008,09,22,07,44,8.40
2008,09,22,07,45,8.40
2008,09,22,07,46,8.40
2008,09,22,07,47,8.40
2008,09,22,07,48,8.40
2008,09,22,07,49,8.40
2008,09,22,07,50,8.40
2008,09,22,07,51,8.40
2008,09,22,07,52,8.40
2008,09,22,07,53,8.40
2008,09,22,07,54,8.40
2008,09,22,07,55,8.40
2008,09,22,07,56,8.40
2008,09,22,07,57,8.40
2008,09,22,07,58,8.40
2008,09,22,07,59,8.40
2008,09,22,08,00,8.40
2008,09,22,08,01,8.40
2008,09,22,08,02,8.40
2008,09,22,08,03,8.40
2008,09,22,08,04,8.40
2008,09,22,08,05,8.40
2008,09,22,08,06,8.40
2008,09,22,08,07,8.50
2008,09,22,08,08,8.50
2008,09,22,08,09,8.50
2008,09,22,08,10,8.50
2008,09,22,08,11,8.50
2008,09,22,08,12,8.50
2008,09,22,08,13,8.50
2008,09,22,08,14,8.60
2008,09,22,08,15,8.60
2008,09,22,08,16,8.60
2008,09,22,08,17,8.60
2008,09,22,08,18,8.60
2008,09,22,08,19,8.60
2008,09,22,08,20,8.60
2008,09,22,08,21,8.60
2008,09,22,08,22,8.60
2008,09,22,08,23,8.60
2008,09,22,08,24,8.70
2008,09,22,08,25,8.70
2008,09,22,08,26,8.70
2008,09,22,08,27,8.70
2008,09,22,08,28,8.70
2008,09,22,08,29,8.70
2008,09,22,08,30,8.80
2008,09,22,08,31,8.80
2008,09,22,08,32,8.80
2008,09,22,08,33,8.80
2008,09,22,08,34,8.80
2008,09,22,08,35,8.80
2008,09,22,08,36,8.80
2008,09,22,08,37,8.80
2008,09,22,08,38,8.90
2008,09,22,08,39,8.90
2008,09,22,08,40,8.90
2008,09,22,08,41,8.90
2008,09,22,08,42,8.90
2008,09,22,08,43,8.90
2008,09,22,08,44,9.00
2008,09,22,08,45,9.00
2008,09,22,08,46,9.00
2008,09,22,08,47,9.10
2008,09,22,08,48,9.10
2008,09,22,08,49,9.10
2008,09,22,08,50,9.20
2008,09,22,08,51,9.20
2008,09,22,08,52,9.20
2008,09,22,08,53,9.30
2008,09,22,08,54,9.30
2008,09,22,08,55,9.30
2008,09,22,08,56,9.40
2008,09,22,08,57,9.40
2008,09,22,08,58,9.50
2008,09,22,08,59,9.60
2008,09,22,09,00,9.60
2008,09,22,09,01,9.60
2008,09,22,09,02,9.70
2008,09,22,09,03,9.70
2008,09,22,09,04,9.80
2008,09,22,09,05,9.80
2008,09,22,09,06,9.90
2008,09,22,09,07,9.90
2008,09,22,09,08,10.00
2008,09,22,09,09,10.00
2008,09,22,09,10,10.10
2008,09,22,09,11,10.20
2008,09,22,09,12,10.20
2008,09,22,09,13,10.30
2008,09,22,09,14,10.30
2008,09,22,09,15,10.40
2008,09,22,09,16,10.40
2008,09,22,09,17,10.50
2008,09,22,09,18,10.60
2008,09,22,09,19,10.60
2008,09,22,09,20,10.60
2008,09,22,09,21,10.60
2008,09,22,09,22,10.60
2008,09,22,09,23,10.60
2008,09,22,09,24,10.60
2008,09,22,09,25,10.50
2008,09,22,09,26,10.50
2008,09,22,09,27,10.50
2008,09,22,09,28,10.40
2008,09,22,09,29,10.40
2008,09,22,09,30,10.40
2008,09,22,09,31,10.40
2008,09,22,09,32,10.40
2008,09,22,09,33,10.40
2008,09,22,09,34,10.40
2008,09,22,09,35,10.40
2008,09,22,09,36,10.50
2008,09,22,09,37,10.50
2008,09,22,09,38,10.60
2008,09,22,09,39,10.60
2008,09,22,09,40,10.70
2008,09,22,09,41,10.80
2008,09,22,09,42,10.80
2008,09,22,09,43,10.90
2008,09,22,09,44,10.90
2008,09,22,09,45,10.90
2008,09,22,09,46,10.90
2008,09,22,09,47,10.90
2008,09,22,09,48,10.90
2008,09,22,09,49,10.90
2008,09,22,09,50,10.90
2008,09,22,09,51,11.00
2008,09,22,09,52,11.10
2008,09,22,09,53,11.10
2008,09,22,09,54,11.20
2008,09,22,09,55,11.20
2008,09,22,09,56,11.30
2008,09,22,09,57,11.30
2008,09,22,09,58,11.30
2008,09,22,09,59,11.30
2008,09,22,10,00,11.40
2008,09,22,10,01,11.40
2008,09,22,10,02,11.40
2008,09,22,10,03,11.40
2008,09,22,10,04,11.40
2008,09,22,10,05,11.50
2008,09,22,10,06,11.50
2008,09,22,10,07,11.50
2008,09,22,10,08,11.60
2008,09,22,10,09,11.60
2008,09,22,10,10,11.60
2008,09,22,10,11,11.70
2008,09,22,10,12,11.70
2008,09,22,10,13,11.80
2008,09,22,10,14,11.80
2008,09,22,10,15,11.80
2008,09,22,10,16,11.80
2008,09,22,10,17,11.90
2008,09,22,10,18,11.90
2008,09,22,10,19,12.00
2008,09,22,10,20,12.10
2008,09,22,10,21,12.10
2008,09,22,10,22,12.10
2008,09,22,10,23,12.10
2008,09,22,10,24,12.20
2008,09,22,10,25,12.30
2008,09,22,10,26,12.40
2008,09,22,10,27,12.40
2008,09,22,10,28,12.50
2008,09,22,10,29,12.50
2008,09,22,10,30,12.50
2008,09,22,10,31,12.60
2008,09,22,10,32,12.60
2008,09,22,10,33,12.60
2008,09,22,10,34,12.60
2008,09,22,10,35,12.60
2008,09,22,10,36,12.70
2008,09,22,10,37,12.70
2008,09,22,10,38,12.80
2008,09,22,10,39,12.80
2008,09,22,10,40,12.90
2008,09,22,10,41,13.00
2008,09,22,10,42,13.00
2008,09,22,10,43,13.10
2008,09,22,10,44,13.10
2008,09,22,10,45,13.20
2008,09,22,10,46,13.20
2008,09,22,10,47,13.20
2008,09,22,10,48,13.10
2008,09,22,10,49,13.10
2008,09,22,10,50,13.10
2008,09,22,10,51,13.20
2008,09,22,10,52,13.20
2008,09,22,10,53,13.20
2008,09,22,10,54,13.30
2008,09,22,10,55,13.40
2008,09,22,10,56,13.30
2008,09,22,10,57,13.20
2008,09,22,10,58,13.10
2008,09,22,10,59,13.10
2008,09,22,11,00,13.00
2008,09,22,11,01,13.00
2008,09,22,11,02,13.00
2008,09,22,11,03,13.10
2008,09,22,11,04,13.10
2008,09,22,11,05,13.20
2008,09,22,11,06,13.30
2008,09,22,11,07,13.30
2008,09,22,11,08,13.30
2008,09,22,11,09,13.30
2008,09,22,11,10,13.30
2008,09,22,11,11,13.40
2008,09,22,11,12,13.40
2008,09,22,11,13,13.50
2008,09,22,11,14,13.60
2008,09,22,11,15,13.60
2008,09,22,11,16,13.70
2008,09,22,11,17,13.80
2008,09,22,11,18,13.80
2008,09,22,11,19,13.90
2008,09,22,11,20,13.90
2008,09,22,11,21,14.00
2008,09,22,11,22,14.00
2008,09,22,11,23,14.10
2008,09,22,11,24,14.10
2008,09,22,11,25,14.20
2008,09,22,11,26,14.20
2008,09,22,11,27,14.20
2008,09,22,11,28,14.20
2008,09,22,11,29,14.20
2008,09,22,11,30,14.20
2008,09,22,11,31,14.20
2008,09,22,11,32,14.20
2008,09,22,11,33,14.30
2008,09,22,11,34,14.30
2008,09,22,11,35,14.40
2008,09,22,11,36,14.40
2008,09,22,11,37,14.50
2008,09,22,11,38,14.40
2008,09,22,11,39,14.40
2008,09,22,11,40,14.40
2008,09,22,11,41,14.50
2008,09,22,11,42,14.50
2008,09,22,11,43,14.50
2008,09,22,11,44,14.50
2008,09,22,11,45,14.50
2008,09,22,11,46,14.60
2008,09,22,11,47,14.70
2008,09,22,11,48,14.90
2008,09,22,11,49,15.00
2008,09,22,11,50,15.00
2008,09,22,11,51,15.00
2008,09,22,11,52,14.90
2008,09,22,11,53,15.00
2008,09,22,11,54,15.00
2008,09,22,11,55,15.00
2008,09,22,11,56,15.30
2008,09,22,11,57,15.40
2008,09,22,11,58,15.50
2008,09,22,11,59,15.60
2008,09,22,12,00,15.70
2008,09,22,12,01,15.70
2008,09,22,12,02,15.70
2008,09,22,12,03,15.70
2008,09,22,12,04,15.60
2008,09,22,12,05,15.50
2008,09,22,12,06,15.60
2008,09,22,12,07,15.50
2008,09,22,12,08,15.40
2008,09,22,12,09,15.20
2008,09,22,12,10,15.10
2008,09,22,12,11,15.00
2008,09,22,12,12,15.00
2008,09,22,12,13,15.00
2008,09,22,12,14,15.00
2008,09,22,12,15,15.10
2008,09,22,12,16,15.20
2008,09,22,12,17,15.30
2008,09,22,12,18,15.30
2008,09,22,12,19,15.40
2008,09,22,12,20,15.40
2008,09,22,12,21,15.50
2008,09,22,12,22,15.60
2008,09,22,12,23,15.70
2008,09,22,12,24,15.70
2008,09,22,12,25,15.70
2008,09,22,12,26,15.70
2008,09,22,12,27,15.70
2008,09,22,12,28,15.70
2008,09,22,12,29,15.80
2008,09,22,12,30,15.90
2008,09,22,12,31,15.90
2008,09,22,12,32,16.00
2008,09,22,12,33,16.10
2008,09,22,12,34,16.00
2008,09,22,12,35,15.90
2008,09,22,12,36,15.90
2008,09,22,12,37,15.90
2008,09,22,12,38,15.90
2008,09,22,12,39,15.90
2008,09,22,12,40,16.00
2008,09,22,12,41,16.00
2008,09,22,12,42,16.00
2008,09,22,12,43,16.00
2008,09,22,12,44,16.00
2008,09,22,12,45,16.00
2008,09,22,12,46,15.90
2008,09,22,12,47,15.90
2008,09,22,12,48,15.80
2008,09,22,12,49,15.60
2008,09,22,12,50,15.50
2008,09,22,12,51,15.40
2008,09,22,12,52,15.30
2008,09,22,12,53,15.20
2008,09,22,12,54,15.10
2008,09,22,12,55,15.20
2008,09,22,12,56,15.30
2008,09,22,12,57,15.40
2008,09,22,12,58,15.50
2008,09,22,12,59,15.60
2008,09,22,13,00,15.50
2008,09,22,13,01,15.40
2008,09,22,13,02,15.30
2008,09,22,13,03,15.30
2008,09,22,13,04,15.30
2008,09,22,13,05,15.30
2008,09,22,13,06,15.30
2008,09,22,13,07,15.30
2008,09,22,13,08,15.40
2008,09,22,13,09,15.40
2008,09,22,13,10,15.40
2008,09,22,13,11,15.50
2008,09,22,13,12,15.50
2008,09,22,13,13,15.50
2008,09,22,13,14,15.50
2008,09,22,13,15,15.50
2008,09,22,13,16,15.40
2008,09,22,13,17,15.50
2008,09,22,13,18,15.50
2008,09,22,13,19,15.60
2008,09,22,13,20,15.70
2008,09,22,13,21,15.70
2008,09,22,13,22,15.70
2008,09,22,13,23,15.80
2008,09,22,13,24,15.70
2008,09,22,13,25,15.60
2008,09,22,13,26,15.60
2008,09,22,13,27,15.50
2008,09,22,13,28,15.40
2008,09,22,13,29,15.30
2008,09,22,13,30,15.30
2008,09,22,13,31,15.20
2008,09,22,13,32,15.10
2008,09,22,13,33,15.10
2008,09,22,13,34,15.10
2008,09,22,13,35,15.20
2008,09,22,13,36,15.30
2008,09,22,13,37,15.30
2008,09,22,13,38,15.40
2008,09,22,13,39,15.40
2008,09,22,13,40,15.40
2008,09,22,13,41,15.50
2008,09,22,13,42,15.60
2008,09,22,13,43,15.50
2008,09,22,13,44,15.50
2008,09,22,13,45,15.50
2008,09,22,13,46,15.40
2008,09,22,13,47,15.40
2008,09,22,13,48,15.40
2008,09,22,13,49,15.30
2008,09,22,13,50,15.30
2008,09,22,13,51,15.30
2008,09,22,13,52,15.30
2008,09,22,13,53,15.30
2008,09,22,13,54,15.30
2008,09,22,13,55,15.30
2008,09,22,13,56,15.20
2008,09,22,13,57,15.10
2008,09,22,13,58,15.00
2008,09,22,13,59,15.00
2008,09,22,14,00,15.00
2008,09,22,14,01,15.00
2008,09,22,14,02,15.00
2008,09,22,14,03,15.00
2008,09,22,14,04,15.10
2008,09,22,14,05,15.40
2008,09,22,14,06,15.50
2008,09,22,14,07,15.60
2008,09,22,14,08,15.70
2008,09,22,14,09,15.90
2008,09,22,14,10,16.10
2008,09,22,14,11,16.30
2008,09,22,14,12,16.40
2008,09,22,14,13,16.50
2008,09,22,14,14,16.60
2008,09,22,14,15,16.70
2008,09,22,14,16,16.80
2008,09,22,14,17,16.90
2008,09,22,14,18,17.00
2008,09,22,14,19,17.00
2008,09,22,14,20,17.10
2008,09,22,14,21,17.10
2008,09,22,14,22,17.00
2008,09,22,14,23,16.90
2008,09,22,14,24,16.70
2008,09,22,14,25,16.60
2008,09,22,14,26,16.50
2008,09,22,14,27,16.40
2008,09,22,14,28,16.40
2008,09,22,14,29,16.40
2008,09,22,14,30,16.40
2008,09,22,14,31,16.50
2008,09,22,14,32,16.40
2008,09,22,14,33,16.40
2008,09,22,14,34,16.40
2008,09,22,14,35,16.50
2008,09,22,14,36,16.60
2008,09,22,14,37,16.60
2008,09,22,14,38,16.80
2008,09,22,14,39,16.90
2008,09,22,14,40,17.10
2008,09,22,14,41,17.10
2008,09,22,14,42,17.20
2008,09,22,14,43,17.20
2008,09,22,14,44,17.10
2008,09,22,14,45,17.00
2008,09,22,14,46,16.80
2008,09,22,14,47,16.70
2008,09,22,14,48,16.70
2008,09,22,14,49,16.70
2008,09,22,14,50,16.70
2008,09,22,14,51,16.80
2008,09,22,14,52,16.90
2008,09,22,14,53,17.10
2008,09,22,14,54,17.20
2008,09,22,14,55,17.30
2008,09,22,14,56,17.30
2008,09,22,14,57,17.40
2008,09,22,14,58,17.40
2008,09,22,14,59,17.40
2008,09,22,15,00,17.40
2008,09,22,15,01,17.30
2008,09,22,15,02,17.20
2008,09,22,15,03,17.10
2008,09,22,15,04,17.20
2008,09,22,15,05,17.10
2008,09,22,15,06,17.10
2008,09,22,15,07,17.10
2008,09,22,15,08,17.10
2008,09,22,15,09,17.20
2008,09,22,15,10,17.20
2008,09,22,15,11,17.30
2008,09,22,15,12,17.30
2008,09,22,15,13,17.30
2008,09,22,15,14,17.30
2008,09,22,15,15,17.30
2008,09,22,15,16,17.40
2008,09,22,15,17,17.40
2008,09,22,15,18,17.40
2008,09,22,15,19,17.50
2008,09,22,15,20,17.60
2008,09,22,15,21,17.60
2008,09,22,15,22,17.60
2008,09,22,15,23,17.60
2008,09,22,15,24,17.60
2008,09,22,15,25,17.60
2008,09,22,15,26,17.60
2008,09,22,15,27,17.60
2008,09,22,15,28,17.50
2008,09,22,15,29,17.40
2008,09,22,15,30,17.30
2008,09,22,15,31,17.30
2008,09,22,15,32,17.30
2008,09,22,15,33,17.30
2008,09,22,15,34,17.30
2008,09,22,15,35,17.20
2008,09,22,15,36,17.20
2008,09,22,15,37,17.20
2008,09,22,15,38,17.20
2008,09,22,15,39,17.10
2008,09,22,15,40,17.00
2008,09,22,15,41,16.90
2008,09,22,15,42,16.90
2008,09,22,15,43,16.90
2008,09,22,15,44,16.80
2008,09,22,15,45,16.80
2008,09,22,15,46,16.80
2008,09,22,15,47,16.80
2008,09,22,15,48,16.70
2008,09,22,15,49,16.70
2008,09,22,15,50,16.80
2008,09,22,15,51,16.80
2008,09,22,15,52,16.70
2008,09,22,15,53,16.70
2008,09,22,15,54,16.70
2008,09,22,15,55,16.70
2008,09,22,15,56,16.70
2008,09,22,15,57,16.60
2008,09,22,15,58,16.60
2008,09,22,15,59,16.60
2008,09,22,16,00,16.60
2008,09,22,16,01,16.50
2008,09,22,16,02,16.50
2008,09,22,16,03,16.30
2008,09,22,16,04,16.30
2008,09,22,16,05,16.20
2008,09,22,16,06,16.20
2008,09,22,16,07,16.10
2008,09,22,16,08,16.10
2008,09,22,16,09,16.10
2008,09,22,16,10,16.10
2008,09,22,16,11,16.20
2008,09,22,16,12,16.10
2008,09,22,16,13,16.10
2008,09,22,16,14,16.00
2008,09,22,16,15,16.00
2008,09,22,16,16,15.80
2008,09,22,16,17,15.70
2008,09,22,16,18,15.60
2008,09,22,16,19,15.50
2008,09,22,16,20,15.50
2008,09,22,16,21,15.50
2008,09,22,16,22,15.40
2008,09,22,16,23,15.40
2008,09,22,16,24,15.40
2008,09,22,16,25,15.40
2008,09,22,16,26,15.40
2008,09,22,16,27,15.20
2008,09,22,16,28,15.20
2008,09,22,16,29,15.00
2008,09,22,16,30,15.00
2008,09,22,16,31,15.00
2008,09,22,16,32,15.00
2008,09,22,16,33,15.00
2008,09,22,16,34,14.90
2008,09,22,16,35,14.90
2008,09,22,16,36,14.90
2008,09,22,16,37,14.90
2008,09,22,16,38,14.80
2008,09,22,16,39,14.80
2008,09,22,16,40,14.70
2008,09,22,16,41,14.70
2008,09,22,16,42,14.60
2008,09,22,16,43,14.60
2008,09,22,16,44,14.50
2008,09,22,16,45,14.40
2008,09,22,16,46,14.40
2008,09,22,16,47,14.40
2008,09,22,16,48,14.40
2008,09,22,16,49,14.40
2008,09,22,16,50,14.40
2008,09,22,16,51,14.50
2008,09,22,16,52,14.50
2008,09,22,16,53,14.50
2008,09,22,16,54,14.60
2008,09,22,16,55,14.70
2008,09,22,16,56,14.80
2008,09,22,16,57,14.80
2008,09,22,16,58,14.80
2008,09,22,16,59,14.70
2008,09,22,17,00,14.70
2008,09,22,17,01,14.70
2008,09,22,17,02,14.60
2008,09,22,17,03,14.60
2008,09,22,17,04,14.70
2008,09,22,17,05,14.70
2008,09,22,17,06,14.70
2008,09,22,17,07,14.70
2008,09,22,17,08,14.70
2008,09,22,17,09,14.80
2008,09,22,17,10,14.80
2008,09,22,17,11,14.80
2008,09,22,17,12,14.80
2008,09,22,17,13,14.80
2008,09,22,17,14,14.80
2008,09,22,17,15,14.80
2008,09,22,17,16,14.70
2008,09,22,17,17,14.70
2008,09,22,17,18,14.70
2008,09,22,17,19,14.70
2008,09,22,17,20,14.60
2008,09,22,17,21,14.60
2008,09,22,17,22,14.60
2008,09,22,17,23,14.50
2008,09,22,17,24,14.50
2008,09,22,17,25,14.30
2008,09,22,17,26,14.20
2008,09,22,17,27,14.10
2008,09,22,17,28,14.00
2008,09,22,17,29,14.00
2008,09,22,17,30,14.00